"Pseudo-MPEC" for P10YaJ8

Created 2020 Mar 31 10:07:10 UT using Find_Orb

Click here for an explanation of pseudo-MPECs

 
 Astrometry: 
     P10YaJ8  C2002 04 01JY)L['G[t,yY46nv%h[+d9ORD?JrOR+GXfN!#2sk-89*r[?#F2Rx644
     P10YaJ8 KC2002 04 01WK#)M,52Snx[tS^`;+hSxr%Zk]$iX5;5hAT!NHS0van\gcgU=e'v644
     P10YaJ8 KC2002 05 06ysYYQI8fdM*RI8-w`a-6HVr5?9E6YL3XEl8Po*Y1!fZ9sXTZ?j\O644
     P10YaJ8  C2002 05 06=LoVq_5CrnC?`s4jjn!E4\^-nlhg7$=TP2dGqEDHh=b;QR+y-*3C644
     P10YaJ8  C2009 12 24iA75cYLgvZrbE?3ydW!,NcHo-Y8m[hkJ+JQLFeD.0dBc(S5('7bPF51
     P10YaJ8  C2009 12 24xASjh-%Vx*;I[ho2X1vNY-mH5N_w%7s2\a?;r=E3fZ!6[4nFdHtCF51
     P10YaJ8  C2011 01 11UAkEp*vOvoa21ZM)wM-TB,hpJ=nY89$bx!7NJR`[2gd0:[(Hy\j_F51
     P10YaJ8  C2011 01 11^3UbP#ABqF+o!BC%u]a-J%qe`Sg_51DMDTiN11q(1VQfxtkM1R5\F51
     P10YaJ8  C2011 01 16X`!:BX)SVWR0Fv1Q$B-Vb`*T3,Rc-]#Oo,(K=Z6;2OF6L.F4HQh[F51
     P10YaJ8  C2011 03 13GO8ym!,*X5yd=%(R;GMOm=UUdD#;f9b;Q;c,!Gd6GN-09A0`H:.eF51
     P10YaJ8  C2011 03 16IcOmgDZZ`O1U8=V`[Fa/.gtGb^.0RuY%o#)ZdYE?qP1wPra^95`!F51
     P10YaJ8  C2011 03 16sn1LdaNwfwxC'2-`X'1N1Caog/`0O.v!L]Astrometry)I#'!Fb4F51
     P10YaJ8  C2011 03 16.F53t0aAaiw!yM/ON522_5m`6UND1t3Do3/Itik6Xhk1;UaDjs0)F51
     P10YaJ8  C2011 04 02c#DyXrwCm0gCPeq?0awSS/HbJFRCV6`YZ_kR\4yFV;C,[;EV#RcfF51
     P10YaJ8  C2011 04 02!K6GX4Xnt7(4]ZJq4q'O:4d/:dfq)8=U(?gw57h=KKQuCeFJoa83F51
     P10YaJ8  C2011 04 02J,wjX:tp1)x*Jo'_`peu-:saCh5ULBSqGkJXNcxqD]Wn9vjF7b?xF51
     P10YaJ8  C2011 04 02+aTu=Z=JQqqvuOJwlHI7_Z_xWOyn8rFwZrQ4i!f`Lb[Ug3Hi\9OxF51
     P10YaJ8  C2011 04 03's(A@SgqgAjVYsvtE^/%BoXoDun%Hredacted;P,Dp_1AL-eDcEqF51
     P10YaJ8  C2011 04 03_spw(p#%Mr]Bp2ju[@[%jtj2wwx:voSIeQ,6.1cZH_P[P%pJau;[F51
     P10YaJ8  C2018 12 12?'6q$41U*?XIJd9XO8xBYFGOp.$1DwlZnKHZ,y^V##o[RLMPBochF51
     P10YaJ8  C2018 12 12l^%JJ#H7pA_PGl)`,=KAoQnM=c;4VT9Xp(N-ypl)q8g1nsNtoD%=F51
     P10YaJ8  C2018 12 12DS[aHo=bx4XZceY31=*$*LWDFLBj@Y%('ty^6wrnX53kHx.-Vl#)F51
     P10YaJ8  C2018 12 12$G)Pj/t0BS8$'l=ihe!$xGQ/3-V6jZ8td(]9lZl_^tQ7tB#vFUwMF51
     P10YaJ8  C2018 12 15`,:nb+^BC2-KJF=*lVBf-vX([$?jUFQa`y$k74$a9Na12TgTtu*RF51
     P10YaJ8  C2018 12 15#Hg[gX63cQN/?-d.1KG9gXKAFY;ucHxf53SG#AdTo4h(vSSDm@VrF51
     P10YaJ8  C2018 12 15;,1woYO[Hip?0ZN%;lm)tj\'h)DqG.(xW;(mdD\Zdln8K/^l2b)mF51
     P10YaJ8  C2018 12 15P2ouhAvP#N.?0!]U7qs)ee.OILu5i$(?kRnYsD0vMro]MRldIeGiF51
     P10YaJ8  C2018 12 29*U-[9BJrKDc#lBP7,LdXvG+N:IRYpAd%_KaRn1Js/3P0mp,WO(X4F51
     P10YaJ8  C2019 01 06WL8c,.*JhiuOuC:FJ3lLCr?nYPwa.er5#[ufeyT.N)^rw*hGq[MoF51
     P10YaJ8  C2019 01 06-Fcfv`(_%Tt)6oIUHWv:n7`]_Wr2L%35FcONH/(vlrE;(mrFj2^IF51
     P10YaJ8  C2019 01 06bubsmOFMb5sK?!NN]J@VJ58=a^aM:Pu9OCBup*eC/*D]2'bR72A)F51
     P10YaJ8  C2019 12 04)(gkU[k_7@xgc@bY$M41KC\gOMypW]RxNaZsGq9E8#@!6x(mf:G8F51
     P10YaJ8  C2019 12 047)Yg13]hp6fDwqDL0Ddg?$HK]rOS.@3AXU7nu5Ev,DH=Bf^`,bVTF51
     P10YaJ8  C2020 01 22g9p`h#wD)r^0JYEI/,G1#ixa)*$`8kSb+veGMcPE?h/i/me;:w*uF52
     P10YaJ8  C2020 01 22YgY]'q)[Yh1D6^.@]McmqeVPqX'iVH*5`e,Ce11d!ILBaS_.J$dBF52
     P10YaJ8  C2020 01 22.[!6$qlL!(fg4cgTuSrPDr=w1K55DDJyZNqUL.A9w_[+Zh#0DG]bF52
     P10YaJ8  C2020 01 22Dn3^#E(MD;BWhQR[(7p3K^66]]ME[u2\Y5[;c%Weuvc+Nx3@ok-6F52
     P10YaJ8  C2020 01 30[jM.i.^D=k%YT_jsZDowOxuDcR,EvY-fBkB@c3FvB+f;?ee:c71[F52
     P10YaJ8  C2020 01 306MxB4wm+^iP09n0i6o0+4upP53AH1NGSbDr/)0SZkcM_s=OhMZVHF52
     P10YaJ8  C2020 01 30+`7r[8um@BF\@rE$)x^t;e34(bV/vf1[L#.bo)Ui%U%y(J#e#a9'F52
     P10YaJ8  C2020 03 24LS/hcsP^TVabVEMyJ]$IeO'*RBCpIo#37A,/Kjc[,KJ't@x]IYg!F51
     P10YaJ8  C2020 03 24!0LKY)^JJDZOhC1tIe7slSHeMHwY6R4FX_Zbw*fAd0b'*1lu^8(`F51
     P10YaJ8  C2020 03 24#0`L-s_.GvZE'FfEP-C5r50W(m=+#X1dQMI9DAa@U,!VLGr#.p8'F51
     P10YaJ8  C2020 03 24_^gIUML386?@:2d5s*kY`!,aMcoCUv]W4$'jQ-WjDP08cN'\XrprF51
     P10YaJ8 bC2020 03 24MVY!?Oxt%[+::f^kto5rFy0cM7y`do27KlljAkJn@6RfdU\/le6^L01
     P10YaJ8 bC2020 03 25dPZcm_U`*P+HP1LE,=Qr'SMU\dtMH9#JMf2AXqc?HNEGZxRxRZapL01
     P10YaJ8  C2020 03 25.30274 12 19 08.89 +12 06 50.0    ~3PE7 20.3 GVNEOCPG96
     P10YaJ8  C2020 03 25.31623 12 19 08.38 +12 06 53.2    ~3PE7 20.2 GVNEOCPG96
     P10YaJ8  C2020 03 25.32146 12 19 08.14 +12 06 54.3    ~3PE7 20.5 GVNEOCPG96
     P10YaJ8  C2020 03 25.32670 12 19 07.91 +12 06 55.1    ~3PE7       VNEOCPG96
     P10YaJ8 KC2020 03 27.01480 12 18 04.20 +12 13 11.8    ~3R17 20.1 VqNEOCPI93
     P10YaJ8 KC2020 03 27.02202 12 18 03.91 +12 13 14.4    ~3R17 19.9 VqNEOCPI93
     P10YaJ8 KC2020 03 27.02926 12 18 03.62 +12 13 15.0    ~3R17 20.1 VqNEOCPI93
     P10YaJ8  C2020 03 286C)OG-3Kh/]_FX(u#OUtNbrZB4ulne6wclick:7+p$0_3HDnnVvC246
     P10YaJ8  C2020 03 28YSS.o%Bkm=]b]M9QDHC/a0W_$%;U#N5V\C%aepU\S=?[0qyUsv4-246
     P10YaJ8  C2020 03 28OMeTh@WpUgRRl:=oTpfs+vD*+q[#+hR2--(q7`#j,=aIf;s,i$]g246
     P10YaJ8  C2020 03 28bB_CFDexWs_1!X\8r`\$WDMD_*N$gAdUd0y*b0#HBXZ$pRdSVBQ^246
     P10YaJ8  C2020 03 28@68$?=l58Vj@C`(Tc*vuTFp?S';*?5@W99N_NfoC5b)rGlBAFhk?246
     P10YaJ8  C2020 03 28Ar4%kIIc9whdr`-a6Y76dZ1heree*xO?#@B#C_=Ab__ZElAH\U@t246
     P10YaJ8 1C2020 03 29k_.JdXTb-Mf(pCKU:FqS+QSQMU4(Obs4JO^4-mw;t=wj:H/oqb#;Q62
     P10YaJ8 1C2020 03 29RPp@XF\+4,ZMtg@K\nhY_]\9l+0T_gJk=t1OtGZ/-n\(\VSrJv,cQ62
     P10YaJ8 KC2020 03 30YBV%MA32.]$L2iU,76oD^+LtaZmfVS)iu`nH''45?l;Q\q]MaSKE858
     P10YaJ8 KC2020 03 30^Rt2g@BtI1oc%qforD`_Z%ROVhn;a!fa_r59*3LP77EpEWUY\a.m858
     P10YaJ8 FC2020 03 30O/ajJ1eU)ohV(n,s,+tHUs%eRL:cI$FN@W9u;explanationnD]$246
     P10YaJ8  C2020 03 30'Qe]pt`m?ky[q:Ds=H@kBQ_F-b)1i[vDrGXMfxr?3iY2cw4]BWh'246
     P10YaJ8  C2020 03 30ui47L[av%ZCw8J=jB]$fpj)m$@j[.q0Q`$`]e\yZ98^W\'n:md*v246
     P10YaJ8 !C2020 03 312/pD$M/031hMH-dd-xWy\h[c\v0!Z`3CViB5Qy*g1dtuN's_VNs0673
     P10YaJ8 !C2020 03 31l^eLDxJUAlj8CCB90S#*)+fjl2b,)Tjn[hG+ChQgZt0V3@0j%muk673
     P10YaJ8 !C2020 03 31I?7\8BA.25i6NxY%?9S*p@$Z0)M_tvYf2qfT8Nf'rArFsQ8D3B:T673

Station data:
(246) Klet Observatory-KLENOT  (N48.863293 E14.288100)  Czech Republic.
   1.06-m KLENOT telescope.
(644) Palomar Mountain (NEAT)  (N33.357340 W116.859780)  US/California. 1.2-m
   Oschin Schmidt.
(673) Table Mountain Observatory, Wrightwood  (N34.381488 W117.682170)
   US/California.  Observer W. M. Owen Jr. 0.61-m f/16 reflector + CCD.
(858) Tebbutt Observatory, Edgewood  (N35.093872 W106.220000)  US/New Mexico.
(F51) Pan-STARRS 1, Haleakala  (N20.707235 W156.255910)  US/Hawaii.
   Observers N. Primak, A. Schultz, S. Watters, J. Thiel, T. Goggia. Measurer
   PS1 Science Consortium. 1.8-m Ritchey-Chrétien + CCD.
(F52) Pan-STARRS 2, Haleakala  (N20.707384 W156.255910)  US/Hawaii. 1.8-m
   Ritchey-Chrétien + CCD.
(G96) Mt. Lemmon Survey  (N32.442754 W110.788720)  US/Arizona.  Observers T.
   A. Pruyne, B. M. Africano, J. D. Ahern, E. C. Beshore, A. Boattini, E. J.
   Christensen, G. A. Farneth, D. C. Fuls, G. J. Garradd, A. R. Gibbs, A. D.
   Grauer, H. Gröller, R. E. Hill, J. A. Johnson, S. Kolar, R. A. Kowalski,
   S. M. Larson, G. J. Leonard, D. McLean, R. H. McNaught, D. Rankin, R. L.
   Seaman, F. C. Shelly. Measurers Seaman, F. C. Shelly. 1.5-m reflector + 4K
   CCD + 10K CCD.
(I93) St Pardon de Conques  (N44.558710 W0.203000)  France.  Observer F.
   Losse. 0.40-m f/3.7 reflector + CCD.
(L01) Višnjan Observatory, Tičan  (N45.290900 E13.749300)  Croatia.
   Observers K. Korlević, E. Pettarin. Measurer E. Pettarin. 1.0-m f/2.9
   reflector + CCD.
(Q62) iTelescope Observatory, Siding Spring  (S31.273289 E149.064420)
   Australia/NSW. 0.50-m f/6.8 astrograph + CCD + focal reducer, 0.70-m f/6.6
   astrograph + CCD.

Orbital elements:  P10YaJ8
   Perihelion 2019 Nov 30.446848 +/- 0.00913 TT = 10:43:27 (JD 2458817.946848)
Epoch 2020 Mar 31.0 TT = JDT 2458939.5   Ju: 0.1407           AutoNEOCP
M  13.27691668 +/- 0.0009           (J2000 ecliptic)
n   0.10922725 +/- 2.04e-8          Peri.   54.52449 +/- 0.0020
a   4.33426419 +/- 5.41e-7          Node    98.12580 +/- 0.0007
e   0.3683054 +/- 3.38e-6           Incl.    8.52938 +/- 0.000059
P   9.02                   H 16.4   G  0.15   U  2.0  
q 2.73793113 +/- 1.49e-5    Q 5.93059724 +/- 1.4e-5
From 69 observations 2002 Apr. 1-2020 Mar. 31; mean residual 2".05
Residuals in arcseconds: 
020401 644  .75+  1.1+    181215 F51  .23-  .65+    200325 G96  .14+  .19+    
020401 644  2.1+  .51+    181215 F51  .33-  .26-    200325 G96  .49+  .27+    
020506 644  1.9+  .26+    181215 F51  .28-  .13+    200325 G96  .01+  .16+    
020506 644  .87+  .29+    181215 F51  .38-  .11+    200325 G96  .32-  .25-    
091224 F51  .48-  .31-    181229 F51  .71+  .75-    200327 I93  .34+  .19-    
091224 F51  .26-  .21-    190106 F51  .31+  .36+    200327 I93  .22+  .85+    
110111 F51  .66-  1.1+    190106 F51  .05-  .11+    200327 I93  .12+  .11-    
110111 F51  .23-  .78+    190106 F51  .18+  .36+    200328 246  .12+  .43+    
110116 F51  .57-  1.3+    191204 F51  .84+  .04+    200328 246  .39+  .73+    
110313 F51  .27-  1.1+    191204 F51  1.1+  .00     200328 246  .34-  .03+    
110316 F51  .41-  1.4+    200122 F52  .24-  .35+    200328 246  .61-  .08-    
110316 F51  .11-  1.3+    200122 F52  .25+  .33+    200328 246  .58-  .85+    
110316 F51  .10-  1.5+    200122 F52  .53+  .14+    200328 246  .16-  .85+    
110402 F51  .42-  1.0+    200122 F52  .65+  .40+    200329 Q62  .18+  .59+    
110402 F51  .38-  1.1+    200130 F52  .14+  .45+    200329 Q62  .39+  .59+    
110402 F51  .06-  1.2+    200130 F52  .02+  .02-    200330 858  .16+  1.1+    
110402 F51  .46-  .94+    200130 F52  .21+  .33+    200330 858  .63+  .89+    
110403 F51  .24-  1.3+    200324 F51  .47+  .08+    200330 246  .34+ 13.2-    
110403 F51  .00   1.2+    200324 F51  .45+  .10+    200330 246  .54+ 14.2-    
181212 F51  .14-  .11+    200324 F51  .49+  .21+    200330 246  .13- 12.5-    
181212 F51  .21+  .30+    200324 F51  .45+  .23+    200331 673  .29+  .17+    
181212 F51  .03-  .36-    200324 L01  .13+  .06+    200331 673  .14+  .64+    
181212 F51  .11+  .39-    200325 L01  .42+  .22-    200331 673  .82-  .11+    

Ephemerides (geocentric):
Date (UTC) HH   RA              Dec         delta   r     elong  mag " sig PA
